ARIANE 2 DEB, 27602

Orbit data source: Space-Track

ARIANE 2 DEB, 27602 is space debris in HEO originally from a launch on Fri, 27 Jan 1989 UTC launched from the French Guiana (FRGUI). Debris objects in space refer to the collection of defunct objects orbiting the Earth. Examples of debris include non-operational satellites, rocket bodies, and fragments generated from explosions, collisions, or faulty payload assembly.

Loading next visibility...
ARIANE 2 DEB details
Identifier
27602, 1989-006AC
Orbit
HEO
Last TLE update2 months ago
Origin
Flag of FRArianespace (FR)
ManufacturerEADS/LV
MissionSpacecraft
Bus & MotorUnknown
MassUnknown
Launch date (UTC)
1989-01-27 (36 years ago)
Launch vehicleUnknown
Launch site
French Guiana (FRGUI)
Object type
Payload
Rocket body
Debris
Shape & HBRUnknown
Radar Cross SectionMedium (>0.1 m² and <1 m²)

Expand to show TLE details & history

TLE from 2 months ago
0 ARIANE 2 DEB
1 27602U 89006AC  24286.22347082 -.00000082  00000-0  21762-2 0  9991
2 27602   6.8549 209.9154 7064144 200.5076 329.6963  2.25278809189220
Epoch: 2024-10-12T05:21Z
Definitive object data (Epoch: 2024-10-12T05:21:47.878Z)
Latitude6.86879°
Longitude-167.91475°
Altitude11,587.511 km
Speed5.306 km/s
True Right ascension19h 35m 16s
True Declination6° 51' 09"
Sunlit
Object was in daylight at TLE epoch
Visualization TLE readout
Latitude3.25019°
Longitude109.8557°
Altitude18,247.621 km
Speed4.019 km/s
Apparent Right ascension13h 22m 38s
Apparent Declination-6° 44' 44"
Sunlit
Object is in daylight
Visualization observer readout
Local Sidereal Time18:10:57
Azimuth253.153° W
Elevation9.147°
Doppler factor1
Orbital elements
Apogee altitude35,574.612 km
Perigee altitude839.76 km
Semi-major axis24,585.323 km
Eccentricity0.7064144
Inclination6.8549°
RAAN209.9154°
Arg. of periapsis200.5076°
True anomaly243.40053°
Mean anomaly329.6963°
Eccentric anomaly292.23014°
Mean motion0.56303 °/min
BSTAR0.0021762
Orbital period639.4 mins
Loading maneuver chart data...
Loading historical data...
Loading historical data...
Loading historical data...
Loading historical data...
Loading historical data...
Loading historical data...
Loading historical data...

ARIANE 2 DEB Visibility forecast

Observer location: undefined°, undefined

Span
Click to sort rows by Start time (UTC) header in descending order
Start Az.
Max El. time (UTC)
Max El. Az.
Max El.
End time (UTC)
End Az.
193 mins2024-12-26 18:53:24.287Z252.791° W2024-12-26 20:06:24.287Z253.44° W15.629°2024-12-26 22:06:24.287Z262.076° W
209 mins2024-12-27 15:19:24.287Z231.881° WSW2024-12-27 17:40:24.287Z213.747° SW34.498°2024-12-27 18:48:24.287Z222.37° SW
|